Location: Monfort
(47.1967°N, 0.2115°W)
Time: 04:32:09
(UTC+00:00)

Cosmos 1939 Rocket - Pass Details

Date: 24 October 2020
Orbit: 532 x 584 km, 97.4° (Epoch: 01 December)

Event Time Altitude Azimuth Distance (km) Brightness Sun altitude
Rises 18:38:27 0° 185° (S) 2,746 6.4 -17.9°
Reaches altitude 10° 18:40:43 10° 194° (SSW) 1,846 5.6 -18.3°
Maximum altitude 18:44:26 37° 263° (W) 868 4.4 -18.9°
Drops below altitude 10° 18:48:08 10° 332° (NNW) 1,832 5.9 -19.6°
Sets 18:50:23 0° 340° (NNW) 2,722 6.7 -19.9°
